N4BCD Weather Reports


time (UTC)temp
F
wind
direction
speed
knots
gust
knots
rain 1hr
in
rain 24hr
in
rain mn
in
humidity
%
barometer
mb
20260906052512 75 87 3.5 6.1 0.00 0.00 0.00 86 1013.1
20260906052015 74 98 1.7 3.5 0.00 0.00 0.00 88 1013.2
20260906051527 74 66 0.9 3.5 0.00 0.00 0.00 89 1013.2
20260906051015 74 91 1.7 2.6 0.00 0.00 0.00 90 1013.1
20260906050519 74 79 0.9 3.5 0.00 0.00 0.00 90 1013.1
20260906050033 73 88 0.9 3.5 0.00 0.00 0.00 90 1013.2
20260906045521 73 65 0.9 3.5 0.00 0.00 0.00 90 1013.3
20260906045003 73 122 0.9 4.3 0.00 0.00 0.00 90 1013.1
20260906044510 73 39 1.7 4.3 0.00 0.00 0.00 90 1013.1
20260906044003 73 60 0.0 0.9 0.00 0.00 0.00 89 1013.1
20260906043506 73 356 0.0 0.0 0.00 0.00 0.00 89 1013.1
20260906043023 73 356 0.0 0.0 0.00 0.00 0.00 89 1013.1
20260906042509 73 356 0.0 0.0 0.00 0.00 0.00 89 1013.3
20260906042009 73 314 0.0 0.0 0.00 0.00 0.00 89 1013.3
20260906041527 73 292 0.0 0.0 0.00 0.00 0.00 89 1013.2
20260906041013 73 248 0.0 0.9 0.00 0.00 0.00 89 1013.3
20260906040514 73 248 0.0 0.9 0.00 0.00 0.00 89 1013.4
20260906040031 73 248 0.0 0.9 0.00 0.00 0.00 88 1013.3
20260906035515 73 248 0.0 0.9 0.00 0.00 0.00 88 1013.3
20260906035014 73 147 0.9 0.9 0.00 0.00 0.00 89 1013.3
20260906034534 73 120 0.0 0.9 0.00 0.00 0.00 88 1013.3
20260906034016 73 65 0.0 0.9 0.00 0.00 0.00 88 1013.4
20260906033503 73 65 0.0 1.7 0.00 0.00 0.00 88 1013.4
20260906033015 73 48 0.9 1.7 0.00 0.00 0.00 88 1013.4
20260906032509 73 43 1.7 1.7 0.00 0.00 0.00 87 1013.3
20260906032009 74 95 0.0 0.9 0.00 0.00 0.00 87 1013.3
20260906031519 74 110 0.0 0.9 0.00 0.00 0.00 87 1013.3
20260906031013 74 351 0.0 1.7 0.00 0.00 0.00 87 1013.1
20260906030512 74 351 0.9 1.7 0.00 0.00 0.00 87 1013.0
20260906030027 74 39 0.0 1.7 0.00 0.00 0.00 86 1013.0
20260906025513 74 127 0.0 0.9 0.00 0.00 0.00 86 1012.9
20260906025015 74 127 0.0 0.0 0.00 0.00 0.00 86 1012.8
20260906024530 74 127 0.0 0.0 0.00 0.00 0.00 85 1012.8
20260906024015 75 127 0.0 1.7 0.00 0.00 0.00 85 1012.8
20260906023514 75 127 0.0 1.7 0.00 0.00 0.00 85 1012.8
20260906023030 75 155 0.0 1.7 0.00 0.00 0.00 85 1012.7
20260906022504 75 155 0.9 1.7 0.00 0.00 0.00 84 1012.6
20260906022008 76 136 0.9 1.7 0.00 0.00 0.00 83 1012.6
20260906021534 76 258 0.9 1.7 0.00 0.00 0.00 83 1012.5
20260906021007 75 283 0.9 1.7 0.00 0.00 0.00 84 1012.5
20260906020513 75 212 0.0 0.0 0.00 0.00 0.00 84 1012.4
20260906020025 76 211 0.0 0.9 0.00 0.00 0.00 84 1012.4
20260906015511 76 212 0.0 0.9 0.00 0.00 0.00 83 1012.3
20260906015010 76 211 0.0 1.7 0.00 0.00 0.00 83 1012.1
20260906014528 76 211 0.9 1.7 0.00 0.00 0.00 82 1012.1
20260906014012 76 204 0.9 1.7 0.00 0.00 0.00 82 1012.1
20260906013515 76 106 0.0 0.9 0.00 0.00 0.00 81 1012.1
20260906013040 77 83 0.0 0.9 0.00 0.00 0.00 82 1012.0
20260906012519 77 75 0.9 0.9 0.00 0.00 0.00 80 1012.0
20260906012017 77 324 0.0 0.9 0.00 0.00 0.00 79 1012.0
20260906011536 77 49 0.0 0.9 0.00 0.00 0.00 79 1012.1
20260906011006 77 49 0.0 1.7 0.00 0.00 0.00 79 1012.2
20260906010508 78 49 0.0 1.7 0.00 0.00 0.00 79 1012.3
20260906010019 78 49 0.0 1.7 0.00 0.00 0.00 78 1012.3
20260906005509 78 49 0.0 2.6 0.00 0.00 0.00 77 1012.2
20260906005009 79 69 1.7 2.6 0.00 0.00 0.00 76 1012.2
20260906004527 79 117 1.7 2.6 0.00 0.00 0.00 76 1012.1
20260906004012 79 149 0.0 0.9 0.00 0.00 0.00 75 1012.0
20260906003514 79 248 0.0 1.7 0.00 0.00 0.00 74 1011.9
20260906003028 80 248 0.0 4.3 0.00 0.00 0.00 74 1012.0
20260906002514 80 234 0.9 4.3 0.00 0.00 0.00 74 1011.9
20260906002016 80 208 2.6 4.3 0.00 0.00 0.00 72 1011.9
20260906001535 81 169 1.7 1.7 0.00 0.00 0.00 71 1011.8
20260906001016 81 145 0.0 0.0 0.00 0.00 0.00 70 1011.7
20260906000518 81 122 0.0 0.0 0.00 0.00 0.00 70 1011.7
20260906000034 81 358 0.0 0.9 0.00 0.00 0.00 69 1011.7
20260905235507 81 358 0.0 2.6 0.00 0.00 0.00 69 1011.7
20260905235009 81 358 0.0 3.5 0.00 0.00 0.00 70 1011.9
20260905234530 81 65 0.9 5.2 0.00 0.00 0.00 69 1011.9
20260905234008 81 30 2.6 5.2 0.00 0.00 0.00 69 1012.0
20260905233510 81 47 2.6 4.3 0.00 0.00 0.00 68 1012.1
20260905233027 81 34 2.6 4.3 0.00 0.00 0.00 68 1012.3
20260905232500 82 63 1.7 5.2 0.00 0.00 0.00 68 1012.5
20260905232004 82 42 0.0 7.8 0.00 0.00 0.00 68 1012.2
20260905231506 82 60 1.7 8.7 0.00 0.00 0.00 68 1012.3
20260905231003 82 65 2.6 13.0 0.00 0.00 0.00 67 1012.2
20260905230504 82 72 6.1 13.0 0.00 0.00 0.00 65 1011.9
20260905230010 83 110 3.5 11.3 0.00 0.00 0.00 65 1012.1
20260905225504 83 129 3.5 14.8 0.00 0.00 0.00 64 1012.2
20260905225003 84 71 6.1 14.8 0.00 0.00 0.00 61 1012.3
20260905224517 86 93 6.1 14.8 0.00 0.00 0.00 58 1012.4
20260905224008 85 155 2.6 4.3 0.00 0.00 0.00 60 1011.8
20260905223514 85 77 1.7 6.1 0.00 0.00 0.00 59 1011.6
20260905223024 86 82 3.5 12.2 0.00 0.00 0.00 58 1011.6
20260905222514 86 56 2.6 13.0 0.00 0.00 0.00 58 1011.8
20260905222002 88 104 7.0 15.6 0.00 0.00 0.00 55 1011.8
20260905221504 90 84 9.6 17.4 0.00 0.00 0.00 52 1011.7
20260905221003 92 94 10.4 17.4 0.00 0.00 0.00 50 1011.6
20260905220503 97 97 5.2 10.4 0.00 0.00 0.00 46 1011.6
20260905220009 98 324 2.6 7.8 0.00 0.00 0.00 46 1011.4
20260905215504 97 52 2.6 7.8 0.00 0.00 0.00 47 1011.2
20260905215006 97 300 2.6 7.0 0.00 0.00 0.00 47 1011.1
20260905214510 97 41 3.5 7.0 0.00 0.00 0.00 47 1011.1
20260905214007 97 63 3.5 9.6 0.00 0.00 0.00 49 1011.1
20260905213509 97 273 2.6 9.6 0.00 0.00 0.00 49 1011.1
20260905213017 97 280 3.5 9.6 0.00 0.00 0.00 48 1011.1
20260905212509 97 278 6.1 9.6 0.00 0.00 0.00 48 1011.2
20260905212012 97 319 2.6 7.8 0.00 0.00 0.00 48 1011.2
20260905211524 97 289 3.5 7.8 0.00 0.00 0.00 48 1011.3
20260905211011 97 286 2.6 6.1 0.00 0.00 0.00 46 1011.3
20260905210504 97 318 2.6 6.1 0.00 0.00 0.00 47 1011.3
20260905210007 97 358 2.6 5.2 0.00 0.00 0.00 46 1011.3
20260905205503 97 21 0.9 6.1 0.00 0.00 0.00 46 1011.3
20260905205005 97 47 2.6 6.1 0.00 0.00 0.00 45 1011.3
20260905204514 97 307 2.6 4.3 0.00 0.00 0.00 46 1011.3
20260905204004 98 261 1.7 3.5 0.00 0.00 0.00 45 1011.3
20260905203508 97 127 1.7 6.1 0.00 0.00 0.00 46 1011.5
20260905203014 97 28 1.7 6.1 0.00 0.00 0.00 46 1011.5
20260905202507 96 345 3.5 8.7 0.00 0.00 0.00 47 1011.7
20260905202008 97 27 4.3 8.7 0.00 0.00 0.00 45 1011.8
20260905201520 97 330 1.7 5.2 0.00 0.00 0.00 48 1011.8
20260905201010 97 3 2.6 7.0 0.00 0.00 0.00 48 1012.0
20260905200509 97 49 4.3 7.0 0.00 0.00 0.00 46 1012.1
20260905200033 96 295 1.7 7.8 0.00 0.00 0.00 49 1012.1
20260905195514 96 41 4.3 7.8 0.00 0.00 0.00 49 1012.2
20260905195004 95 315 0.9 5.2 0.00 0.00 0.00 50 1012.3
20260905194507 95 331 2.6 7.0 0.00 0.00 0.00 49 1012.4
20260905194005 95 324 2.6 7.0 0.00 0.00 0.00 48 1012.4
20260905193503 96 353 1.7 7.0 0.00 0.00 0.00 47 1012.3
20260905193011 96 326 2.6 5.2 0.00 0.00 0.00 47 1012.4
20260905192506 96 326 0.9 7.0 0.00 0.00 0.00 47 1012.4
20260905192005 95 37 3.5 7.0 0.00 0.00 0.00 49 1012.6
20260905191515 94 328 0.9 3.5 0.00 0.00 0.00 54 1012.6
20260905191008 94 89 0.9 4.3 0.00 0.00 0.00 55 1012.8
20260905190509 94 41 1.7 7.0 0.00 0.00 0.00 54 1012.8
20260905190034 94 56 2.6 7.0 0.00 0.00 0.00 53 1012.9
20260905185512 96 30 4.3 7.8 0.00 0.00 0.00 49 1013.0
20260905185012 97 23 3.5 7.8 0.00 0.00 0.00 47 1013.2
20260905184537 96 144 0.9 2.6 0.00 0.00 0.00 48 1013.2
20260905184014 96 117 1.7 3.5 0.00 0.00 0.00 47 1013.2
20260905183505 96 88 0.9 6.1 0.00 0.00 0.00 52 1013.3
20260905183007 95 347 1.7 6.1 0.00 0.00 0.00 51 1013.4
20260905182502 95 42 2.6 6.1 0.00 0.00 0.00 50 1013.5
20260905182005 95 91 2.6 4.3 0.00 0.00 0.00 54 1013.6
20260905181513 94 51 0.9 3.5 0.00 0.00 0.00 53 1013.6
20260905181004 93 92 1.7 3.5 0.00 0.00 0.00 54 1013.7
20260905180508 93 92 1.7 5.2 0.00 0.00 0.00 54 1013.8
20260905180016 94 39 1.7 5.2 0.00 0.00 0.00 53 1013.8
20260905175509 94 95 0.9 4.3 0.00 0.00 0.00 55 1013.8
20260905175012 93 77 1.7 5.2 0.00 0.00 0.00 54 1013.8
20260905174528 94 67 2.6 5.2 0.00 0.00 0.00 52 1013.8
20260905174013 94 321 2.6 7.0 0.00 0.00 0.00 52 1013.8
20260905173513 94 56 2.6 7.0 0.00 0.00 0.00 51 1013.8
20260905173027 94 19 3.5 6.1 0.00 0.00 0.00 54 1013.9
20260905172514 94 2 3.5 6.1 0.00 0.00 0.00 53 1013.9
20260905172015 94 342 1.7 6.1 0.00 0.00 0.00 52 1014.0
20260905171508 94 310 2.6 7.8 0.00 0.00 0.00 53 1014.0
20260905171002 93 281 4.3 7.8 0.00 0.00 0.00 53 1014.0
20260905170505 93 226 2.6 7.8 0.00 0.00 0.00 54 1014.1
20260905170011 94 293 6.1 7.8 0.00 0.00 0.00 52 1014.1
20260905165507 94 274 1.7 9.6 0.00 0.00 0.00 57 1014.2
20260905165006 93 265 2.6 9.6 0.00 0.00 0.00 54 1014.3
20260905164520 93 327 5.2 7.8 0.00 0.00 0.00 54 1014.4
20260905164010 93 338 1.7 6.1 0.00 0.00 0.00 56 1014.5
20260905163509 93 93 2.6 6.1 0.00 0.00 0.00 55 1014.5
20260905163027 92 343 2.6 5.2 0.00 0.00 0.00 57 1014.6
20260905162513 92 297 1.7 5.2 0.00 0.00 0.00 57 1014.8
20260905162014 92 359 1.7 4.3 0.00 0.00 0.00 59 1014.9
20260905161527 92 297 1.7 4.3 0.00 0.00 0.00 59 1014.9
20260905161014 92 333 2.6 4.3 0.00 0.00 0.00 58 1015.0
20260905160513 92 82 1.7 3.5 0.00 0.00 0.00 60 1015.0
20260905160017 92 351 1.7 5.2 0.00 0.00 0.00 59 1015.1
20260905155504 91 323 2.6 5.2 0.00 0.00 0.00 58 1015.1
20260905155007 91 32 0.9 3.5 0.00 0.00 0.00 60 1015.1
20260905154517 90 285 0.9 3.5 0.00 0.00 0.00 60 1015.2
20260905154006 90 268 0.9 3.5 0.00 0.00 0.00 61 1015.2
20260905153510 90 231 0.9 3.5 0.00 0.00 0.00 60 1015.2
20260905153027 90 231 0.0 2.6 0.00 0.00 0.00 62 1015.2
20260905152512 89 205 0.9 2.6 0.00 0.00 0.00 63 1015.2
20260905152012 89 98 0.9 2.6 0.00 0.00 0.00 64 1015.2
20260905151528 88 166 0.9 3.5 0.00 0.00 0.00 64 1015.3
20260905151013 88 272 2.6 3.5 0.00 0.00 0.00 64 1015.3
20260905150515 88 314 1.7 5.2 0.00 0.00 0.00 64 1015.3
20260905150030 88 242 2.6 5.2 0.00 0.00 0.00 66 1015.3
20260905145515 88 147 1.7 4.3 0.00 0.00 0.00 67 1015.3
20260905145014 88 139 1.7 3.5 0.00 0.00 0.00 67 1015.3
20260905144521 87 197 1.7 3.5 0.00 0.00 0.00 68 1015.2
20260905144003 87 211 1.7 3.5 0.00 0.00 0.00 69 1015.2
20260905143510 87 202 2.6 3.5 0.00 0.00 0.00 70 1015.3
20260905143015 87 201 0.9 3.5 0.00 0.00 0.00 70 1015.4
20260905142507 87 229 0.9 1.7 0.00 0.00 0.00 70 1015.4
20260905142009 87 163 0.9 1.7 0.00 0.00 0.00 72 1015.4
20260905141521 86 207 0.9 1.7 0.00 0.00 0.00 72 1015.3
20260905141010 86 190 0.9 1.7 0.00 0.00 0.00 74 1015.4
20260905140513 85 217 0.0 0.9 0.00 0.00 0.00 76 1015.3
20260905140004 85 184 0.0 0.9 0.00 0.00 0.00 78 1015.4
20260905135502 84 153 0.0 0.9 0.00 0.00 0.00 79 1015.5
20260905135003 83 140 0.0 0.9 0.00 0.00 0.00 80 1015.5
20260905134507 83 91 0.0 0.9 0.00 0.00 0.00 81 1015.5
20260905134005 82 60 0.0 0.9 0.00 0.00 0.00 81 1015.6
20260905133503 81 26 0.0 1.7 0.00 0.00 0.00 84 1015.6
20260905133015 80 27 0.0 1.7 0.00 0.00 0.00 85 1015.5
20260905132504 80 258 0.0 0.0 0.00 0.00 0.00 85 1015.5
20260905132010 79 203 0.0 0.0 0.00 0.00 0.00 86 1015.6
20260905131528 79 202 0.0 0.0 0.00 0.00 0.00 85 1015.6
20260905131010 79 202 0.0 0.9 0.00 0.00 0.00 87 1015.7
20260905130514 78 202 0.0 0.9 0.00 0.00 0.00 87 1015.7
20260905130028 78 226 0.0 0.9 0.00 0.00 0.00 87 1015.6
20260905125517 78 198 0.0 0.0 0.00 0.00 0.00 88 1015.6
20260905125016 77 218 0.0 0.0 0.00 0.00 0.00 90 1015.6
20260905124510 76 217 0.0 0.9 0.00 0.00 0.00 92 1015.7
20260905124003 74 218 0.0 0.9 0.00 0.00 0.00 91 1015.7
20260905123503 74 217 0.0 0.9 0.00 0.00 0.00 91 1015.7
20260905123009 74 347 0.0 0.0 0.00 0.00 0.00 92 1015.6
20260905122503 74 347 0.0 0.0 0.00 0.00 0.00 93 1015.6
20260905122004 74 347 0.0 0.0 0.00 0.00 0.00 93 1015.5
20260905121516 73 348 0.0 0.0 0.00 0.00 0.00 93 1015.5
20260905121008 72 347 0.0 0.0 0.00 0.00 0.00 94 1015.4
20260905120508 72 347 0.0 0.0 0.00 0.00 0.00 94 1015.3
20260905120024 71 348 0.0 0.0 0.00 0.00 0.00 94 1015.3
20260905115511 71 348 0.0 0.0 0.00 0.00 0.00 93 1015.3
20260905115011 71 347 0.0 0.9 0.00 0.00 0.00 93 1015.2
20260905114528 71 347 0.0 0.9 0.00 0.00 0.00 94 1015.2
20260905114012 70 347 0.0 0.9 0.00 0.00 0.00 93 1015.2
20260905113514 70 347 0.0 0.0 0.00 0.00 0.00 93 1015.1
20260905113007 70 348 0.0 0.0 0.00 0.00 0.00 93 1015.0
20260905112504 70 348 0.0 0.0 0.00 0.00 0.00 93 1015.0
20260905112003 71 348 0.0 0.0 0.00 0.00 0.00 93 1015.0
20260905111513 71 348 0.0 0.0 0.00 0.00 0.00 93 1015.0
20260905111008 71 347 0.0 0.9 0.00 0.00 0.00 93 1014.9
20260905110507 71 348 0.0 0.9 0.00 0.00 0.00 93 1014.8
20260905110020 71 348 0.0 0.9 0.00 0.00 0.00 93 1014.7
20260905105511 71 348 0.0 0.9 0.00 0.00 0.00 93 1014.7
20260905105010 71 125 0.0 0.0 0.00 0.00 0.00 93 1014.7
20260905104532 71 125 0.0 0.9 0.00 0.00 0.00 93 1014.5
20260905104010 71 125 0.0 0.9 0.00 0.00 0.00 93 1014.5
20260905103512 71 125 0.0 0.0 0.00 0.00 0.00 93 1014.5
20260905103029 71 125 0.0 0.0 0.00 0.00 0.00 93 1014.4
20260905102514 71 125 0.0 0.0 0.00 0.00 0.00 93 1014.4
20260905102015 71 125 0.0 0.0 0.00 0.00 0.00 93 1014.5
20260905101513 71 125 0.0 0.0 0.00 0.00 0.00 93 1014.5
20260905101005 71 125 0.0 0.0 0.00 0.00 0.00 93 1014.6
20260905100507 71 125 0.0 0.0 0.00 0.00 0.00 93 1014.5
20260905100018 71 125 0.0 0.0 0.00 0.00 0.00 93 1014.6
20260905095507 71 125 0.0 0.9 0.00 0.00 0.00 93 1014.5
20260905095009 71 125 0.0 0.9 0.00 0.00 0.00 93 1014.5
20260905094523 71 125 0.0 0.0 0.00 0.00 0.00 93 1014.5
20260905094013 71 125 0.0 0.9 0.00 0.00 0.00 93 1014.5
20260905093512 71 125 0.0 0.9 0.00 0.00 0.00 93 1014.5
20260905093030 71 54 0.0 0.9 0.00 0.00 0.00 93 1014.3
20260905092511 71 54 0.0 0.9 0.00 0.00 0.00 93 1014.2
20260905092015 71 68 0.0 0.0 0.00 0.00 0.00 93 1014.1
20260905091531 71 68 0.0 0.0 0.00 0.00 0.00 93 1014.1
20260905091013 71 68 0.0 0.0 0.00 0.00 0.00 93 1014.0
20260905090517 71 68 0.0 1.7 0.00 0.00 0.00 93 1014.0
20260905090010 71 69 0.0 1.7 0.00 0.00 0.00 93 1014.1
20260905085504 71 68 0.0 0.9 0.00 0.00 0.00 93 1014.1
20260905085008 71 68 0.0 0.0 0.00 0.00 0.00 93 1014.1
20260905084520 71 68 0.0 0.0 0.00 0.00 0.00 93 1014.1
20260905084008 71 68 0.0 0.0 0.00 0.00 0.00 93 1014.0
20260905083512 72 68 0.0 0.0 0.00 0.00 0.00 93 1014.0
20260905083033 72 68 0.0 0.0 0.00 0.00 0.00 93 1014.0
20260905082512 72 68 0.0 0.0 0.00 0.00 0.00 93 1014.0
20260905082013 72 68 0.0 0.0 0.00 0.00 0.00 93 1014.0
20260905081528 72 68 0.0 0.0 0.00 0.00 0.00 93 1014.0
20260905081016 72 68 0.0 0.0 0.00 0.00 0.00 93 1014.0
20260905080513 71 68 0.0 1.7 0.00 0.00 0.00 93 1014.0
20260905080040 71 68 0.0 1.7 0.00 0.00 0.00 93 1014.0
20260905075515 71 68 0.9 1.7 0.00 0.00 0.00 93 1014.0
20260905075020 71 72 0.9 1.7 0.00 0.00 0.00 93 1014.0
20260905074514 72 73 0.9 1.7 0.00 0.00 0.00 92 1014.1
20260905074006 72 72 0.9 1.7 0.00 0.00 0.00 92 1014.0
20260905073509 72 123 0.0 0.0 0.00 0.00 0.00 92 1014.0
20260905073025 72 123 0.0 0.0 0.00 0.00 0.00 92 1014.1
20260905072512 72 123 0.0 0.0 0.00 0.00 0.00 92 1014.0
20260905072011 72 123 0.0 0.0 0.00 0.00 0.00 92 1014.0
20260905071528 72 123 0.0 0.9 0.00 0.00 0.00 92 1014.0
20260905071016 72 123 0.0 0.9 0.00 0.00 0.00 92 1014.1
20260905070512 72 123 0.0 0.0 0.00 0.00 0.00 92 1014.1
20260905070033 72 123 0.0 0.0 0.00 0.00 0.00 92 1014.1
20260905065516 72 123 0.0 0.0 0.00 0.00 0.00 92 1014.0
20260905065021 72 123 0.0 0.0 0.00 0.00 0.00 92 1014.0
20260905064532 72 123 0.0 0.0 0.00 0.00 0.00 92 1014.1
20260905064019 72 123 0.0 0.0 0.00 0.00 0.00 92 1014.1
20260905063517 72 123 0.0 0.0 0.00 0.00 0.00 92 1014.2
20260905063018 72 123 0.0 0.0 0.00 0.00 0.00 92 1014.2
20260905062511 73 123 0.0 0.0 0.00 0.00 0.00 92 1014.3
20260905062011 73 123 0.0 0.0 0.00 0.00 0.00 92 1014.4
20260905061504 73 123 0.0 0.9 0.00 0.00 0.00 92 1014.5
20260905061003 73 123 0.0 0.9 0.00 0.00 0.00 92 1014.4
20260905060503 73 123 0.0 0.0 0.00 0.00 0.00 92 1014.5
20260905060005 73 123 0.0 0.9 0.00 0.00 0.00 92 1014.5
20260905055502 73 123 0.0 0.9 0.00 0.00 0.00 92 1014.5
20260905055004 73 123 0.0 1.7 0.00 0.00 0.00 91 1014.5
20260905054510 73 123 0.9 1.7 0.00 0.00 0.00 91 1014.6
20260905054005 73 123 0.0 0.0 0.00 0.00 0.00 91 1014.6
20260905053504 73 123 0.0 0.0 0.00 0.00 0.00 91 1014.6
20260905053015 73 123 0.0 0.0 0.00 0.00 0.00 91 1014.5